Regional Weather Roundup
Issued by NWS

Home | Current Version | Previous Version | Text Only | Print | Product List | Glossary Off
Versions: 1 2 3 4 5 6 7 8 9 10 11 12 13 14 15 16 17 18 19 20 21 22 23 24 25 26 27 28 29 30 31 32 33 34 35 36 37 38 39 40 41 42 43 44 45 46 47 48 49 50

000
ASUS43 KFSD 021602
RWRSD

WEATHER ROUNDUP FOR SOUTH DAKOTA
NATIONAL WEATHER SERVICE SIOUX FALLS SD
1100 AM CDT THU OCT 02 2014

NOTE: "FAIR" INDICATES FEW OR NO CLOUDS BELOW 12,000 FEET WITH NO
SIGNIFICANT WEATHER AND/OR OBSTRUCTIONS TO VISIBILITY.


SDZ001>005-009-010-012>017-021700-
NORTHWEST AND NORTH CENTRAL SOUTH DAKOTA

CITY           SKY/WX    TMP DP  RH WIND       PRES   REMARKS
BUFFALO          N/A     53  38  56 W18       29.88S
FAITH            N/A     58  39  49 W18       29.92F
MOBRIDGE       SUNNY     56  45  66 SW3       29.88F
$$

SDZ012>016-024>037-041>051-057-063-072>074-021700-
SOUTHWEST AND SOUTH CENTRAL SOUTH DAKOTA

CITY           SKY/WX    TMP DP  RH WIND       PRES   REMARKS
RAPID CTY ARPT SUNNY     56  41  57 SW3       29.97F
PIERRE         SUNNY     55  45  68 W7        29.93F
CUSTER         SUNNY     48  32  53 W8        30.02F
ELLSWORTH AFB  SUNNY     58  36  42 W12       29.97F
PHILIP         SUNNY     55  45  68 W10       29.96F
PINE RIDGE     SUNNY     51  43  74 W10       30.02F
WINNER         FAIR      59  46  62 NW9       29.96S
$$

SDZ004>011-016>023-039-040-021700-
NORTHEAST SOUTH DAKOTA

CITY           SKY/WX    TMP DP  RH WIND       PRES   REMARKS
ABERDEEN       MOSUNNY   60  48  64 W5        29.89F
WATERTOWN      CLOUDY    53  50  89 SW3       29.90R
SISSETON         N/A     59  49  69 N5        29.86S
$$

SDZ017-020-022-023-036>040-048>070-021700-
SOUTHEAST SOUTH DAKOTA

CITY           SKY/WX    TMP DP  RH WIND       PRES   REMARKS
SIOUX FALLS    LGT RAIN  55  52  89 N5        29.90R
HURON          PTSUNNY   60  50  69 VRB5      29.91S
CHAMBERLAIN    SUNNY     57  49  74 W8        29.95S
MITCHELL       CLOUDY    57  52  83 NW9       29.92F
YANKTON        CLOUDY    54  52  94 NW12      29.91F
$$

ABBREVIATIONS USED IN REMARKS
   TC - TEMPERATURE IN CELSIUS
  WCI - WIND CHILL INDEX
   HX - HEAT INDEX
  VSB - VISIBILITY



USA.gov is the U.S. government's official web portal to all federal, state and local government web resources and services.